Location: Keewatin
(47.4004°N, 93.0827°W)
Time: 22:43:42
(UTC+00:00)

Envisat - Pass Details

Date: 13 December 2019
Orbit: 764 x 766 km, 98.1° (Epoch: 21 January)

Event Time Altitude Azimuth Distance (km) Brightness Sun altitude
Rises 00:42:29 0° 187° (S) 3,220 6.4 -22.8°
Reaches altitude 10° 00:44:56 10° 195° (SSW) 2,299 5.7 -23.2°
Maximum altitude 00:49:39 39° 263° (W) 1,149 4.4 -24.0°
Drops below altitude 10° 00:54:25 10° 332° (NNW) 2,315 5.7 -24.8°
Sets 00:56:53 0° 340° (NNW) 3,246 6.4 -25.2°
